SCP
0 1 0 1 1 1 1 0 1 0 0 0 0 0 0 1 1 1 1 1 1 1
1 1 1 1 1 1 1 1 2 1 0 1 1 1 1 1 1 1 1 1 2 1
2 1 1 1 1 1 1 0 2 2 1 1 1 1 1 1 1 1 1 1 1 1
3 3 2 1 1 1 1 2 1 2 2 2 1 1 1 1 1 1 1 1 1 1
3 3 2 2 1 2 2 2 3 3 3 2 2 1 1 1 1 1 1 2 1 1
4 3 2 2 2 2 2 2 1 3 3 3 2 2 1 1 1 1 1 1 1 1
4 3 3 3 3 2 2 3 2 2 3 3 3 3 3 3 2 2 1 1 1 1
5 5 4 3 3 3 2 2 3 3 3 3 3 3 3 3 2 2 2 1 1 1
3 5 5 5 4 2 3 3 3 3 2 2 3 2 1 2 2 2 2 2 2 1
7 3 5 4 4 5 3 4 3 3 3 2 2 2 1 0 2 3 3 4 3 1
6 6 3 2 2 3 5 4 4 3 3 3 3 2 2 1 1 2 3 3 3 2
2 3 5 4 2 2 4 4 5 4 3 2 2 2 1 1 2 3 3 4 4 3
1 2 2 4 5 5 5 2 3 2 2 2 2 2 1 0 2 2 2 3 4 3
1 1 2 2 3 3 3 3 2 2 1 0 1 1 0 0 0 1 3 2 4 2
Wind_Speed_500mb
66 56 60 52 47 53 48 43 52 38 54 54 49 42 44 40 38 38 37 32 33 35
65 70 62 62 46 48 55 47 52 50 44 46 47 53 44 52 43 37 38 37 37 31
73 70 68 63 62 62 49 56 39 58 55 52 51 53 57 47 43 45 44 44 41 42
69 76 73 71 68 67 64 52 59 42 56 57 53 52 56 62 58 51 53 50 48 48
68 68 74 78 77 70 73 68 56 68 52 60 57 52 58 58 60 58 61 51 44 45
76 73 77 80 76 79 76 80 74 65 74 61 62 56 55 58 63 64 63 56 57 54
83 79 75 77 75 75 75 76 83 79 69 75 77 67 65 69 69 62 58 58 56 53
83 81 77 77 76 75 74 75 79 80 83 75 74 79 80 77 69 66 62 61 59 61
51 81 81 81 79 78 81 78 75 82 82 85 80 79 72 70 67 66 67 66 56 54
37 60 80 81 83 83 79 81 79 80 82 84 84 85 82 73 78 79 74 71 57 61
50 48 60 71 73 78 77 78 79 82 84 85 86 84 84 84 81 76 80 76 64 59
56 58 55 64 71 76 75 80 82 83 87 82 84 85 80 81 81 92 89 85 78 76
61 65 71 66 71 65 64 68 65 70 78 83 85 82 81 80 80 78 81 88 92 79
60 65 63 68 71 57 62 57 56 71 66 72 72 79 79 83 72 77 84 84 75 67
Wind_Direction_500mb
217 216 216 218 216 211 222 220 235 242 220 226 228 235 221 224 238 236 250 257 263 258
229 225 221 217 217 227 217 221 228 237 237 237 238 238 230 224 224 235 243 252 261 264
238 234 229 221 217 224 224 222 222 233 233 235 247 244 232 232 234 231 240 244 251 255
239 238 237 229 224 224 223 220 226 237 235 239 247 245 232 230 226 233 248 247 245 251
236 238 239 240 231 228 227 224 223 229 234 238 247 247 236 235 236 234 236 244 251 251
230 235 239 240 241 232 231 229 226 226 230 232 235 239 242 243 244 246 245 248 250 259
226 228 235 238 232 241 235 232 231 229 230 236 239 237 239 243 246 246 242 242 248 251
230 228 225 225 232 236 239 239 234 234 234 235 239 242 245 245 244 245 248 251 246 247
245 226 229 225 226 233 234 238 239 234 239 235 238 243 243 246 247 251 252 257 260 259
252 240 232 231 225 229 230 234 237 238 239 239 243 241 240 243 247 248 254 256 246 255
258 252 243 236 235 232 230 229 232 238 243 246 248 246 244 241 240 251 254 253 250 249
262 254 246 246 244 241 240 238 235 239 241 243 245 250 250 248 242 240 246 250 252 251
266 252 252 246 242 244 239 242 245 246 247 248 249 252 253 253 249 250 249 252 250 251
275 259 248 250 248 240 248 250 255 255 265 260 261 262 258 258 253 253 252 251 244 249
Wind_Speed_850mb
66 56 60 52 47 53 48 43 52 38 54 54 49 42 44 40 38 38 37 32 33 35
65 70 62 62 46 48 55 47 52 50 44 46 47 53 44 52 43 37 38 37 37 31
73 70 68 63 62 62 49 56 39 58 55 52 51 53 57 47 43 45 44 44 41 42
69 76 73 71 68 67 64 52 59 42 56 57 53 52 56 62 58 51 53 50 48 48
68 68 74 78 77 70 73 68 56 68 52 60 57 52 58 58 60 58 61 51 44 45
76 73 77 80 76 79 76 80 74 65 74 61 62 56 55 58 63 64 63 56 57 54
83 79 75 77 75 75 75 76 83 79 69 75 77 67 65 69 69 62 58 58 56 53
83 81 77 77 76 75 74 75 79 80 83 75 74 79 80 77 69 66 62 61 59 61
51 81 81 81 79 78 81 78 75 82 82 85 80 79 72 70 67 66 67 66 56 54
37 60 80 81 83 83 79 81 79 80 82 84 84 85 82 73 78 79 74 71 57 61
50 48 60 71 73 78 77 78 79 82 84 85 86 84 84 84 81 76 80 76 64 59
56 58 55 64 71 76 75 80 82 83 87 82 84 85 80 81 81 92 89 85 78 76
61 65 71 66 71 65 64 68 65 70 78 83 85 82 81 80 80 78 81 88 92 79
60 65 63 68 71 57 62 57 56 71 66 72 72 79 79 83 72 77 84 84 75 67
Wind_Direction_850mb
217 216 216 218 216 211 222 220 235 242 220 226 228 235 221 224 238 236 250 257 263 258
229 225 221 217 217 227 217 221 228 237 237 237 238 238 230 224 224 235 243 252 261 264
238 234 229 221 217 224 224 222 222 233 233 235 247 244 232 232 234 231 240 244 251 255
239 238 237 229 224 224 223 220 226 237 235 239 247 245 232 230 226 233 248 247 245 251
236 238 239 240 231 228 227 224 223 229 234 238 247 247 236 235 236 234 236 244 251 251
230 235 239 240 241 232 231 229 226 226 230 232 235 239 242 243 244 246 245 248 250 259
226 228 235 238 232 241 235 232 231 229 230 236 239 237 239 243 246 246 242 242 248 251
230 228 225 225 232 236 239 239 234 234 234 235 239 242 245 245 244 245 248 251 246 247
245 226 229 225 226 233 234 238 239 234 239 235 238 243 243 246 247 251 252 257 260 259
252 240 232 231 225 229 230 234 237 238 239 239 243 241 240 243 247 248 254 256 246 255
258 252 243 236 235 232 230 229 232 238 243 246 248 246 244 241 240 251 254 253 250 249
262 254 246 246 244 241 240 238 235 239 241 243 245 250 250 248 242 240 246 250 252 251
266 252 252 246 242 244 239 242 245 246 247 248 249 252 253 253 249 250 249 252 250 251
275 259 248 250 248 240 248 250 255 255 265 260 261 262 258 258 253 253 252 251 244 249